User: anonymous   Login
Location: Unspecified
(0.0000°N, 0.0000°E)
Time: 07:03:26
(UTC+00:00)
Language:

N. Korean satellite - Orbit

View from above orbital plane
View from above orbital plane
View from above satellite
View from above satellite

Ground track
Ground track

The orbit data is extracted from the following two-line orbital elements,

1 39026U 12072A   18048.59430381 +.00001708 +00000-0 +66926-4 0  9995
2 39026 097.2145 063.0335 0040501 029.7527 330.6003 15.26366478287350
Epoch (UTC): 17 February 2018 14:15:47
Eccentricity: 0.0040501
inclination: 97.2145°
perigee height: 459 km
apogee height: 514 km
right ascension of ascending node: 63.0335°
argument of perigee: 29.7527°
revolutions per day: 15.26366478
mean anomaly at epoch: 330.6003°
orbit number at epoch: 28735

The dashed part of the orbit path shows where the satellite is in the earth's shadow,  

DLR